Portada
METAR-TAF:

METAR-TAF

Aeroports :

Lamerd, Iran

latitud: 27-22-22N, longitud: 53-11-20E, altitud: 408 m

Observació

L'informe es va fer fa 17 minuts, a les 10:00 UTC
Vent 4 kt del Nord-Est
Temperatura 47°C
Humitat 17%
Pressió 997 hPa
Visibilitat: 7000 m

METAR: OISR 091000Z 05004KT 7000 NSC 47/16 Q0997 A2945 NOSIG

Hora: 14:47 (10:17 UTC)


TAF: manca

Observacions i pronòstics meteorològics de més de 4000 aeroports (METAR i TAF).

Les estacions disponibles són els punts grocs i vermells al mapa.

Posi el ratolí al punt desitjat per veure el nom de l'estació.

Feu clic per veure les observacions i els pronòstics meteorològics.

Per canviar el mapa: feu clic els botons verds amb una creu de color negre per apropar; al botó verd amb un guió per allunyar la imatge; o en les fletxes verdes per a mapes adjacents.


METAR-TAF: